Voltar ao catálogo

STARLINK-3072

AtivoComunicaçõesVLEO
NORAD 49153·PAYLOAD·🇺🇸 United States

Lançado Sep 14, 2021 de Vandenberg Space Force Base

Loading…

Próximas Passagens (próximas 24 horas)

TLE

AtualizadoSource: CelesTrak SupGP

Época: Sep 15, 2026, 02:16 UTC

1 49153C 21082Z   26258.09493056  .00037782  00000+0  31671-2 0  2588
2 49153  70.0000 136.8985 0002909 274.0873  64.0105 14.98301343    15

Acompanhe STARLINK-3072 em tempo real com AllMySat

Download on the App Store